Flag for Oman Weather past 2 weeks in Salalah, Oman

Now
77 °F

Drizzle. Mostly cloudy.


Feels Like: 78 °F
Forecast: 80 / 86 °F
Wind: 6 mph from South

Location: Salalah Airport

Current Time: Jul 11, 2014 at 3:25:00 AM

Latest Report: Jul 11, 2014 at 2:50 AM


Visibility: 2 mi

Pressure: 29.68 "Hg

Humidity: 94%

Dew point: 75 °F

Location of SalalahLocation

Historic Weather in Salalah — Graph

°F

Salalah temperature yesterday

Maximum temperature yesterday: 82 °F (at 12:50 PM)
Minimum temperature yesterday: 79 °F (at 12:50 AM)
Average temperature yesterday: 80 °F

Past Weeks' High & Low Weather Summary

 TemperatureHumidityPressure
High88 °F (Jun 26, 12:50 PM)94% (Jul 2, 6:50 AM)29.74 "Hg (Jul 2, 6:50 AM)
Low77 °F (Jul 11, 1:50 AM)66% (Jun 27, 12:50 PM)29.53 "Hg (Jul 4, 2:50 PM)
Average82 °F83%29.65 "Hg
* Reported Jun 26 1:50 AM — Jul 11 1:50 AM, Salalah, Weather by CustomWeather, © 2014

Note: Actual official high and low records may vary slightly from our data, if they occured in-between our weather recording intervals... More about our weather records

Advertising

Salalah weather history for previous 24 hours

 ConditionsComfort  
Time TempWeatherWind HumidityBarometerVisibility
1:50 AM
Jul 11
77 °FDrizzle. Overcast.7 mph94%29.68 "Hg1 mi
12:50 AM79 °FWarm.6 mph89%29.68 "Hg2 mi
11:50 PM
Jul 10
79 °FMostly cloudy.8 mph84%29.71 "Hg4 mi
10:50 PM79 °FMostly cloudy.8 mph84%29.71 "Hg4 mi
9:50 PM79 °FDrizzle. Mostly cloudy.9 mph84%29.71 "Hg4 mi
8:50 PM79 °FWarm.6 mph89%29.68 "Hg4 mi
7:50 PM79 °FWarm.10 mph89%29.65 "Hg3 mi
6:50 PM81 °FMore clouds than sun.10 mph84%29.65 "Hg2 mi
5:50 PM81 °FMore clouds than sun.12 mph79%29.65 "Hg3 mi
4:50 PM81 °FWarm.12 mph79%29.62 "Hg4 mi
3:50 PM82 °FWarm.12 mph79%29.62 "Hg4 mi
2:50 PM81 °FDrizzle. More clouds than sun.9 mph84%29.65 "Hg3 mi
1:50 PM81 °FWarm.8 mph84%29.65 "Hg3 mi
12:50 PM82 °FMore clouds than sun.9 mph74%29.68 "Hg3 mi
11:50 AM81 °FMore clouds than sun.9 mph79%29.68 "Hg3 mi
10:50 AM81 °FMostly cloudy.10 mph79%29.71 "Hg3 mi
9:50 AM79 °FWarm.13 mph89%29.71 "Hg5 mi
8:50 AM79 °FDrizzle. Cloudy.9 mph89%29.68 "Hg4 mi
7:50 AM79 °FWarm.12 mph89%29.68 "Hg2 mi
6:50 AM79 °FWarm.1 mph89%29.71 "Hg3 mi
5:50 AM79 °FWarm.6 mph89%29.65 "Hg3 mi
4:50 AM79 °FDrizzle. Overcast.9 mph89%29.62 "Hg2 mi
3:50 AM79 °FDrizzle. Overcast.8 mph89%29.62 "Hg2 mi
Weather by CustomWeather, © 2014

See weather overviewHow to use our weather pages